Eugene, OR

5:20 AM PST on December 16, 2019 (GMT -0800)
Mahlon Sweet

Weather History for KEUG - October, 2019

Change the Weather History Date:

Wednesday, October 23, 2019

  Actual Average Record
Temperature  
Mean Temperature 53 °F 50 °F  
Max Temperature 59 °F 61 °F 78 °F (1992)
Min Temperature 46 °F 40 °F 28 °F (2000)
Degree Days  
Heating Degree Days 12 15  
Month to date heating degree days 310 258  
Since 1 July heating degree days 428 446  
Cooling Degree Days 0 0  
Month to date cooling degree days 0 0  
Year to date cooling degree days 353 238  
Growing Degree Days 1 (Base 50)    
Moisture  
Dew Point 45 °F    
Average Humidity 78    
Maximum Humidity 93    
Minimum Humidity 62    
Precipitation  
Precipitation 0.00 in 0.14 in 1.23 in (2010)
Month to date precipitation 1.25 2.00  
Year to date precipitation 29.74 29.30  
Sea Level Pressure  
Sea Level Pressure 30.42 in    
Wind  
Wind Speed 7 mph (North)    
Max Wind Speed 13 mph    
Max Gust Speed 16 mph    
Visibility 9 miles    
Events      
T = Trace of Precipitation, MM = Missing Value Source: NWS Daily Summary

Daily Weather History Graph

Daily Weather History Graph

Search for Another Location

Airport or City:

Astronomy

Oct. 23, 2019 Rise Set
Actual Time 7:37 AM PDT 6:16 PM PDT
Civil Twilight 7:08 AM PDT 6:45 PM PDT
Nautical Twilight 6:34 AM PDT 7:19 PM PDT
Astronomical Twilight 6:00 AM PDT 7:52 PM PDT
Moon 1:47 AM PDT (10/23) 4:24 PM PDT (10/23)
Length of Visible Light 11h 37m
Length of Day
10h 38m
Waning Crescent, 25% of the Moon is Illuminated
Oct 23
Waning Crescent
Oct 27
New
Nov 4
First Quarter
Nov 12
Full
Nov 19
Last Quarter

Hourly Weather History & Observations

Time (PDT) Temp. Windchill Dew Point Humidity Pressure Visibility Wind Dir Wind Speed Gust Speed Precip Events Conditions
12:12 AM 46.9 °F - 46.0 °F 97% 30.40 in 1.2 mi Calm Calm - N/A   Clear
12:21 AM 48.0 °F - 46.0 °F 93% 30.40 in 2.5 mi North 3.5 mph - N/A   Clear
12:28 AM 48.0 °F - 45.0 °F 89% 30.41 in 6.0 mi North 4.6 mph - N/A   Clear
12:54 AM 46.0 °F - 44.1 °F 93% 30.41 in 6.0 mi Calm Calm - N/A   Clear
1:54 AM 46.9 °F - 45.0 °F 93% 30.42 in 10.0 mi Calm Calm - N/A   Clear
2:40 AM 46.9 °F - 44.1 °F 90% 30.43 in 10.0 mi North 6.9 mph - N/A   Mostly Cloudy
2:54 AM 48.9 °F - 46.9 °F 93% 30.43 in 10.0 mi North 5.8 mph - N/A   Overcast
3:54 AM 51.1 °F - 48.0 °F 89% 30.41 in 10.0 mi North 4.6 mph - N/A   Overcast
4:54 AM 50.0 °F - 46.0 °F 86% 30.41 in 10.0 mi North 6.9 mph - N/A   Overcast
5:16 AM 48.9 °F - 45.0 °F 86% 30.41 in 10.0 mi North 8.1 mph - N/A   Overcast
5:46 AM 48.0 °F - 45.0 °F 89% 30.42 in 10.0 mi North 4.6 mph - N/A   Overcast
5:54 AM 48.0 °F - 45.0 °F 89% 30.43 in 10.0 mi North 8.1 mph - N/A   Overcast
6:54 AM 48.0 °F - 45.0 °F 89% 30.43 in 10.0 mi North 6.9 mph - N/A   Overcast
7:07 AM 48.0 °F - 45.0 °F 89% 30.43 in 10.0 mi North 8.1 mph - N/A   Overcast
7:39 AM 46.9 °F - 44.1 °F 90% 30.43 in 10.0 mi North 3.5 mph - N/A   Mostly Cloudy
7:54 AM 46.9 °F - 44.1 °F 90% 30.44 in 10.0 mi North 3.5 mph - N/A   Mostly Cloudy
8:28 AM 46.9 °F - 44.1 °F 90% 30.44 in 10.0 mi North 4.6 mph - N/A   Mostly Cloudy
8:54 AM 48.0 °F - 44.1 °F 86% 30.45 in 10.0 mi North 9.2 mph - N/A   Overcast
9:54 AM 48.9 °F - 45.0 °F 86% 30.47 in 10.0 mi North 8.1 mph - N/A   Overcast
10:54 AM 50.0 °F - 46.0 °F 86% 30.47 in 10.0 mi NNE 4.6 mph - N/A   Overcast
11:54 AM 51.1 °F - 46.0 °F 83% 30.46 in 10.0 mi NNE 6.9 mph - N/A   Overcast
12:08 PM 52.0 °F - 46.9 °F 83% 30.45 in 9.0 mi NE 6.9 mph - N/A   Overcast
12:54 PM 52.0 °F - 46.9 °F 83% 30.45 in 10.0 mi NNE 6.9 mph - N/A   Mostly Cloudy
1:25 PM 55.0 °F - 48.0 °F 77% 30.43 in 10.0 mi NNE 8.1 mph - N/A   Mostly Cloudy
1:54 PM 55.9 °F - 48.0 °F 75% 30.43 in 10.0 mi NNE 8.1 mph - N/A   Scattered Clouds
2:54 PM 57.9 °F - 46.9 °F 67% 30.41 in 10.0 mi North 10.4 mph - N/A   Partly Cloudy
3:54 PM 59.0 °F - 46.9 °F 64% 30.40 in 10.0 mi North 11.5 mph - N/A   Partly Cloudy
4:54 PM 59.0 °F - 48.0 °F 67% 30.39 in 10.0 mi North 10.4 mph - N/A   Partly Cloudy
5:54 PM 55.0 °F - 46.9 °F 74% 30.38 in 10.0 mi North 10.4 mph - N/A   Scattered Clouds
6:54 PM 48.9 °F - 45.0 °F 86% 30.38 in 10.0 mi NNW 8.1 mph - N/A   Partly Cloudy
7:54 PM 46.9 °F - 44.1 °F 90% 30.38 in 10.0 mi NNW 8.1 mph - N/A   Clear
8:54 PM 46.0 °F - 43.0 °F 89% 30.38 in 10.0 mi Calm Calm - N/A   Clear
9:54 PM 45.0 °F - 42.1 °F 90% 30.40 in 10.0 mi Calm Calm - N/A   Clear
10:54 PM 43.0 °F - 41.0 °F 93% 30.40 in 10.0 mi Calm Calm - N/A   Clear
11:54 PM 43.0 °F 41.3 °F 41.0 °F 93% 30.40 in 6.0 mi ESE 3.5 mph - N/A   Clear